ADB1 OMDB-OPKC

Flight info

Callsign ADB1
Flight time N/A
Altitude 33000
Route IVURO M428 TARBO Z440 DAMUM B524 ALPOR G216 LAKIV
Aircraft A225/J-SCDFGHIRUWXYZ/LB1

Departure

Time 2026-04-24 06:19
Airport Dubai International Airport (OMDB)

Arrival

Time N/A
Airport Jinnah International Airport (OPKC)
Time Latitude Longitude Altitude Speed Heading
2026-04-24 06:11 25.25436 55.36543 35 ft 25 kts 121°
2026-04-24 06:11 25.25349 55.36695 34 ft 23 kts 122°
2026-04-24 06:12 25.25263 55.36847 34 ft 24 kts 122°
2026-04-24 06:12 25.25174 55.37008 35 ft 25 kts 122°
2026-04-24 06:12 25.25082 55.37170 36 ft 26 kts 122°
2026-04-24 06:12 25.24984 55.37343 36 ft 27 kts 122°
2026-04-24 06:13 25.24883 55.37526 36 ft 29 kts 122°
2026-04-24 06:13 25.24801 55.37669 35 ft 29 kts 122°
2026-04-24 06:14 25.24759 55.37742 35 ft 27 kts 121°
2026-04-24 06:14 25.24687 55.37873 35 ft 12 kts 121°
2026-04-24 06:14 25.24673 55.37925 35 ft 4 kts 82°
2026-04-24 06:14 25.24679 55.37942 35 ft 2 kts 62°
2026-04-24 06:15 25.24694 55.37962 36 ft 5 kts 44°
2026-04-24 06:15 25.24727 55.37990 37 ft 7 kts 35°
2026-04-24 06:15 25.24770 55.38015 39 ft 6 kts 12°
2026-04-24 06:15 25.24806 55.38008 39 ft 5 kts 329°
2026-04-24 06:16 25.24834 55.37976 39 ft 7 kts 305°
2026-04-24 06:16 25.24840 55.37966 39 ft 0 kts 303°
2026-04-24 06:18 25.24845 55.37958 39 ft 11 kts 303°
2026-04-24 06:18 25.24999 55.37683 40 ft 75 kts 301°
2026-04-24 06:18 25.25374 55.37007 40 ft 130 kts 302°
2026-04-24 06:19 25.25931 55.36070 293 ft 153 kts 306°
2026-04-24 06:19 25.26521 55.35111 854 ft 149 kts 303°
2026-04-24 06:19 25.26975 55.34136 1538 ft 144 kts 302°
2026-04-24 06:19 25.27540 55.33088 1908 ft 171 kts 306°
2026-04-24 06:20 25.28186 55.31932 2615 ft 181 kts 305°
2026-04-24 06:20 25.28854 55.30722 3362 ft 186 kts 305°
2026-04-24 06:20 25.29757 55.29707 4086 ft 188 kts 332°
2026-04-24 06:20 25.31003 55.29363 4807 ft 190 kts
2026-04-24 06:21 25.32322 55.29488 5481 ft 192 kts
2026-04-24 06:21 25.33670 55.29574 6097 ft 199 kts
2026-04-24 06:21 25.35127 55.29603 6507 ft 222 kts
2026-04-24 06:21 25.36742 55.29642 7032 ft 239 kts
2026-04-24 06:22 25.38442 55.29704 7582 ft 255 kts
2026-04-24 06:22 25.40235 55.30285 7772 ft 279 kts 28°
2026-04-24 06:22 25.41778 55.31620 8044 ft 288 kts 51°
2026-04-24 06:22 25.42893 55.33481 8388 ft 294 kts 63°
2026-04-24 06:23 25.43931 55.35432 8758 ft 302 kts 58°
2026-04-24 06:23 25.45219 55.37288 9087 ft 307 kts 50°
2026-04-24 06:23 25.46647 55.39054 9494 ft 311 kts 50°
2026-04-24 06:23 25.48023 55.40882 10390 ft 308 kts 53°
2026-04-24 06:24 25.49307 55.42797 11088 ft 312 kts 55°
2026-04-24 06:24 25.50629 55.44712 11845 ft 314 kts 53°
2026-04-24 06:24 25.51887 55.46689 12608 ft 315 kts 65°
2026-04-24 06:24 25.52561 55.48992 13390 ft 316 kts 84°
2026-04-24 06:25 25.52522 55.51418 14056 ft 318 kts 104°
2026-04-24 06:25 25.51782 55.53676 14683 ft 318 kts 123°
2026-04-24 06:25 25.50565 55.55741 15205 ft 322 kts 130°
2026-04-24 06:25 25.49230 55.57751 15806 ft 326 kts 130°
2026-04-24 06:26 25.47953 55.59851 16368 ft 331 kts 126°
2026-04-24 06:26 25.46772 55.62042 16942 ft 334 kts 125°
2026-04-24 06:26 25.45560 55.64246 17496 ft 337 kts 127°
2026-04-24 06:26 25.44287 55.66434 18023 ft 340 kts 127°
2026-04-24 06:27 25.43017 55.68659 18474 ft 345 kts 123°
2026-04-24 06:27 25.42155 55.71145 18919 ft 348 kts 108°
2026-04-24 06:27 25.41655 55.73732 19375 ft 350 kts 105°
2026-04-24 06:27 25.41173 55.76368 19835 ft 351 kts 107°
2026-04-24 06:28 25.40599 55.79003 20262 ft 354 kts 108°
2026-04-24 06:28 25.39996 55.81651 20710 ft 356 kts 108°
2026-04-24 06:28 25.39424 55.84330 21119 ft 359 kts 107°
2026-04-24 06:28 25.38869 55.87024 21535 ft 361 kts 107°
2026-04-24 06:29 25.38293 55.89734 21951 ft 363 kts 108°
2026-04-24 06:29 25.37700 55.92459 22339 ft 366 kts 108°
2026-04-24 06:29 25.37119 55.95161 22726 ft 368 kts 108°
2026-04-24 06:29 25.36532 55.97923 23108 ft 370 kts 108°
2026-04-24 06:30 25.35939 56.00703 23482 ft 372 kts 108°
2026-04-24 06:30 25.35338 56.03493 23782 ft 374 kts 108°
2026-04-24 06:30 25.34733 56.06303 24096 ft 376 kts 108°
2026-04-24 06:30 25.34128 56.09125 24380 ft 378 kts 108°
2026-04-24 06:31 25.33519 56.11959 24678 ft 380 kts 108°
2026-04-24 06:31 25.32902 56.14807 24961 ft 382 kts 108°
2026-04-24 06:31 25.32089 56.17595 25223 ft 383 kts 115°
2026-04-24 06:31 25.31171 56.20322 25495 ft 385 kts 115°
2026-04-24 06:32 25.30239 56.23096 25762 ft 387 kts 115°
2026-04-24 06:32 25.29328 56.25899 26011 ft 388 kts 114°
2026-04-24 06:32 25.28414 56.28715 26262 ft 390 kts 114°
2026-04-24 06:32 25.27486 56.31531 26524 ft 392 kts 115°
2026-04-24 06:33 25.26547 56.34362 26862 ft 392 kts 115°
2026-04-24 06:33 25.25604 56.37201 27238 ft 395 kts 115°
2026-04-24 06:33 25.24660 56.40061 27576 ft 398 kts 114°
2026-04-24 06:33 25.23712 56.42943 27929 ft 400 kts 114°
2026-04-24 06:34 25.22769 56.45799 28276 ft 403 kts 114°
2026-04-24 06:34 25.21799 56.48720 28451 ft 410 kts 114°
2026-04-24 06:34 25.20804 56.51710 28440 ft 421 kts 114°
2026-04-24 06:35 25.18748 56.57906 28497 ft 436 kts 115°
2026-04-24 06:35 25.17589 56.60951 28544 ft 424 kts 117°
2026-04-24 06:35 25.16476 56.63941 28496 ft 420 kts 116°
2026-04-24 06:36 25.14273 56.69843 28939 ft 419 kts 117°
2026-04-24 06:36 25.12848 56.73573 29283 ft 422 kts 117°
2026-04-24 06:36 25.10099 56.80886 29997 ft 425 kts 117°
2026-04-24 06:36 25.05681 56.92544 30760 ft 434 kts 116°
2026-04-24 06:37 25.00977 57.04932 31507 ft 441 kts 116°
2026-04-24 06:37 24.96194 57.17489 32199 ft 448 kts 116°
2026-04-24 06:37 24.91313 57.30267 32780 ft 457 kts 116°
2026-04-24 06:37 24.89449 57.35135 32885 ft 461 kts 116°
2026-04-24 06:38 24.88205 57.38380 32861 ft 458 kts 116°
2026-04-24 06:38 24.85736 57.44823 32858 ft 457 kts 116°
2026-04-24 06:39 24.83259 57.51265 32859 ft 460 kts 116°
2026-04-24 06:39 24.78640 57.63256 32857 ft 476 kts 116°
2026-04-24 06:39 24.73902 57.75524 32849 ft 488 kts 116°
2026-04-24 06:39 24.72816 57.79078 32668 ft 492 kts 106°
2026-04-24 06:40 24.72264 57.82706 32680 ft 484 kts 99°
2026-04-24 06:40 24.71580 57.90070 32847 ft 484 kts 98°
2026-04-24 06:41 24.70548 57.97427 32801 ft 491 kts 101°
2026-04-24 06:41 24.69660 58.04819 32793 ft 486 kts 99°
2026-04-24 06:42 24.68712 58.12135 32807 ft 487 kts 101°
2026-04-24 06:42 24.67773 58.19497 32806 ft 486 kts 99°
2026-04-24 06:43 24.66834 58.26851 32819 ft 485 kts 100°
2026-04-24 06:43 24.65883 58.34192 32811 ft 485 kts 100°
2026-04-24 06:44 24.64940 58.41533 32805 ft 485 kts 100°
2026-04-24 06:44 24.63991 58.48811 32810 ft 484 kts 100°
2026-04-24 06:45 24.63041 58.56135 32806 ft 484 kts 100°
2026-04-24 06:45 24.62082 58.63451 32808 ft 483 kts 100°
2026-04-24 06:46 24.61124 58.70760 32807 ft 483 kts 100°
2026-04-24 06:46 24.60170 58.77997 32813 ft 482 kts 100°
2026-04-24 06:47 24.59205 58.85293 32803 ft 482 kts 100°
2026-04-24 06:47 24.58239 58.92570 32806 ft 481 kts 100°
2026-04-24 06:48 24.57271 58.99836 32805 ft 481 kts 100°
2026-04-24 06:48 24.56305 59.07052 32801 ft 480 kts 101°
2026-04-24 06:49 24.55332 59.14304 32812 ft 480 kts 101°
2026-04-24 06:49 24.54349 59.21545 32822 ft 478 kts 101°
2026-04-24 06:50 24.52862 59.28672 32800 ft 479 kts 106°
2026-04-24 06:50 24.51352 59.35750 32802 ft 479 kts 105°
2026-04-24 06:51 24.49833 59.42868 32795 ft 479 kts 105°
2026-04-24 06:51 24.48305 59.49979 32806 ft 479 kts 105°
2026-04-24 06:52 24.46780 59.57088 32810 ft 478 kts 105°
2026-04-24 06:52 24.45258 59.64140 32792 ft 478 kts 105°
2026-04-24 06:53 24.43729 59.71235 32804 ft 478 kts 105°
2026-04-24 06:53 24.42193 59.78324 32796 ft 478 kts 105°
2026-04-24 06:54 24.40656 59.85410 32811 ft 477 kts 105°
2026-04-24 06:54 24.39116 59.92490 32797 ft 477 kts 105°
2026-04-24 06:55 24.37583 59.99519 32803 ft 477 kts 105°
2026-04-24 06:55 24.36038 60.06592 32796 ft 477 kts 106°
2026-04-24 06:56 24.34491 60.13655 32796 ft 476 kts 106°
2026-04-24 06:56 24.32944 60.20713 32795 ft 476 kts 106°
2026-04-24 06:57 24.31403 60.27717 32805 ft 475 kts 106°
2026-04-24 06:57 24.29852 60.34756 32797 ft 475 kts 106°
2026-04-24 06:58 24.28297 60.41798 32797 ft 475 kts 106°
2026-04-24 06:58 24.26739 60.48835 32796 ft 475 kts 106°
2026-04-24 06:59 24.25188 60.55822 32799 ft 475 kts 106°
2026-04-24 06:59 24.23625 60.62852 32796 ft 475 kts 106°
2026-04-24 07:00 24.22057 60.69885 32806 ft 475 kts 106°
2026-04-24 07:00 24.20487 60.76913 32804 ft 475 kts 105°
2026-04-24 07:01 24.18928 60.83898 32818 ft 475 kts 105°
2026-04-24 07:01 24.17352 60.90937 32802 ft 476 kts 105°
2026-04-24 07:02 24.15773 60.97974 32804 ft 476 kts 105°
2026-04-24 07:02 24.14190 61.05011 32800 ft 476 kts 105°
2026-04-24 07:03 24.12617 61.11993 32804 ft 476 kts 105°
2026-04-24 07:03 24.11028 61.19027 32805 ft 476 kts 105°
2026-04-24 07:04 24.09436 61.26056 32820 ft 476 kts 105°
2026-04-24 07:04 24.08052 61.33127 32624 ft 476 kts 96°
2026-04-24 07:04 24.08118 61.36727 32504 ft 472 kts 84°
2026-04-24 07:05 24.08632 61.40252 32630 ft 468 kts 80°
2026-04-24 07:05 24.09902 61.47172 32788 ft 466 kts 81°
2026-04-24 07:06 24.10809 61.54205 32784 ft 466 kts 83°
2026-04-24 07:06 24.11890 61.61200 32780 ft 466 kts 81°
2026-04-24 07:07 24.12880 61.68199 32804 ft 466 kts 82°
2026-04-24 07:07 24.14411 61.78647 32804 ft 465 kts 82°
2026-04-24 07:08 24.15526 61.85606 32821 ft 465 kts 82°
2026-04-24 07:08 24.16602 61.92585 32790 ft 464 kts 81°